Regional Weather Roundup
Issued by NWS

Home | Current Version | Previous Version | Graphics & Text | Print | Product List | Glossary On
Versions: 1 2 3 4 5 6 7 8 9 10 11 12 13 14 15 16 17 18 19 20 21 22 23 24 25 26 27 28 29 30 31 32 33 34 35 36 37 38 39 40 41 42 43 44 45 46 47 48 49 50
000
ASUS43 KLOT 110508
RWRIL

ILLINOIS REGIONAL WEATHER ROUNDUP
NATIONAL WEATHER SERVICE CHICAGO/ROMEOVILLE IL
1100 PM CST WED FEB 10 2016

NOTE: "FAIR" INDICATES FEW OR NO CLOUDS BELOW 12,000 FEET WITH NO
SIGNIFICANT WEATHER AND/OR OBSTRUCTIONS TO VISIBILITY.

* THESE STATIONS ARE NOT UNDER NWS QUALITY CONTROL. THEY ALSO MAY NOT
  REPORT WEATHER SUCH AS PRECIPITATION OR FOG.

ILZ001-002-007-009-015-016-024-110600-
NORTHWEST ILLINOIS

CITY           SKY/WX    TMP DP  RH WIND       PRES   REMARKS
MOLINE         CLOUDY    14   2  58 N7        30.20R WCI   4
STERLING*      CLOUDY    14   1  57 N6        30.16S WCI   5
SAVANNA*       CLOUDY    13   1  57 N6        30.20S WCI   4
$$

ILZ003-004-008-010-011-017-018-110600-
NORTH CENTRAL ILLINOIS

CITY           SKY/WX    TMP DP  RH WIND       PRES   REMARKS
ROCKFORD       CLOUDY    11   1  64 N6        30.20S WCI   1
FREEPORT*      CLOUDY    11   3  70 N5        30.19F WCI   3
ROCHELLE*      CLOUDY    12   4  70 N6        30.18F WCI   3
DE KALB*       CLOUDY    10   3  74 CALM      30.17S
$$

ILZ005-006-012>014-019>023-110600-
NORTHEAST ILLINOIS

CITY           SKY/WX    TMP DP  RH WIND       PRES   REMARKS
CHICAGO-OHARE  PTCLDY    10   1  67 NW7       30.17R WCI  -1
CHICAGO-MIDWAY MOCLDY    13   0  56 NW7       30.18R WCI   3
AURORA         MOCLDY    10   3  73 N5        30.18R WCI   2
LANSING*       CLEAR     13   2  62 NW5       30.17S WCI   5
JOLIET*        MOCLDY    13   3  63 N5        30.18F WCI   6
WAUKEGAN       CLEAR      6  -1  73 W5        30.16R WCI  -3
DUPAGE AIRPORT MOCLDY     9   0  67 NW5       30.16S WCI   1
KANKAKEE*      CLOUDY    15   4  61 N9        30.17S WCI   3
WHEELING       CLEAR     10   0  63 NW7       30.18S WCI  -1
MORRIS*        PTCLDY    11   5  76 CALM      30.15S
ROMEOVILLE*    PTCLDY    11   2  67 N6        30.18S WCI   1
NORTHERLY ISL    N/A     15   3  59 NW8         N/A  WCI   4
$$

LMZ740>746-110600-
SOUTHERN LAKE MICHIGAN

STATION/POSITION SKY/WX   TEMP    WIND        PRES    VSBY  WAVE
                          AIR SEA DIR/SP/G                  HT/PER
                          (F)     (DEG/KT/KT) (MB)    (MI)  (FT/S)
HARRISON CRIB              15     300/ 11/ 13   N/A
BURNHAM HARBOR             14     300/  7/ 10   N/A
CALUMET HARBOR             13     300/  9/ 11 1020.8R
BURNS HARBOR               17     290/ 12/ 18 1021.3R
MICHIGAN CITY              17     280/ 13/ 19   N/A
$$

ILZ025>027-034>036-040-047-049-050-058-095>099-110600-
WEST-CENTRAL ILLINOIS

CITY           SKY/WX    TMP DP  RH WIND       PRES   REMARKS
QUINCY         CLOUDY    20  15  81 NE7       30.16S WCI  11
GALESBURG*     CLOUDY    14   8  75 N5        30.19R WCI   7
MACOMB*        CLOUDY    19  15  83 N6        30.20S WCI  11
JACKSONVILLE*  CLOUDY    22  17  83 CALM      30.17S
PITTSFIELD*    CLOUDY    20  18  91 NE5       30.17S WCI  14
$$

ILZ028>032-037-038-041>044-048-051>054-059>061-110600-
CENTRAL ILLINOIS

CITY           SKY/WX    TMP DP  RH WIND       PRES   REMARKS
PONTIAC        CLOUDY    15   8  75 N6        30.18S WCI   6
BLOOMINGTON    CLOUDY    15   6  67 NW6       30.17R WCI   6
DECATUR        CLOUDY    20  13  74 N9        30.16S WCI   9
PEORIA         CLEAR     15   7  70 CALM      30.19R
LACON*         CLOUDY    13   5  69 CALM      30.19R
LINCOLN*       CLOUDY    18  12  76 CALM      30.18S
SPRINGFIELD    CLOUDY    21  15  78 N6        30.18S WCI  13
TAYLORVILLE    CLOUDY    21  18  86 NW3       30.18R
$$

ILZ033-039-045-046-055>057-062-063-110600-
EAST-CENTRAL ILLINOIS

CITY           SKY/WX    TMP DP  RH WIND       PRES   REMARKS
CHAMPAIGN      CLEAR     13   7  77 W6        30.16S WCI   4
RANTOUL*       MOCLDY    17   8  69 NW5       30.16S WCI  10
MATTOON        CLOUDY    18  13  80 NW7       30.16R WCI   9
$$

ILZ079-100>102-110600-
SOUTHWEST ILLINOIS

CITY           SKY/WX    TMP DP  RH WIND       PRES   REMARKS
ALTON          CLOUDY    21  18  86 E3        30.17R
BELLEVILLE     PTCLDY    22  20  94 NE3       30.16F
CAHOKIA*       CLOUDY    23  18  81 E3        30.17S
SPARTA*        CLOUDY    22  19  89 CALM      30.17S
$$

ILZ064>066-069>071-074>076-080>082-084>086-088>090-092>094-110600-
SOUTH-CENTRAL ILLINOIS

CITY           SKY/WX    TMP DP  RH WIND       PRES   REMARKS
CARBONDALE     CLOUDY    23  18  81 E3        30.17S
CAIRO*         CLOUDY    26  22  87 E5        30.16S WCI  20
EFFINGHAM*     CLOUDY    21  18  86 SW3       30.19S
MARION         CLOUDY    25  21  86 CALM      30.18S
MT. VERNON     CLOUDY    21  16  79 CALM      30.18S
CENTRALIA*     CLOUDY    21  19  91 CALM      30.17R
SALEM*         CLOUDY    22  18  84 CALM      30.18R
METROPOLIS*    CLOUDY    25  23  93 CALM      30.17F
$$

ILZ067-068-072-073-078-083-087-091-110600-
SOUTHEAST ILLINOIS

CITY           SKY/WX    TMP DP  RH WIND       PRES   REMARKS
LAWRENCEVILLE  CLOUDY    20  15  81 NW3       30.20S
FLORA*         FLURRIES  22  18  85 CALM      30.19S
FAIRFIELD*     CLOUDY    21  19  90 CALM      30.18S
HARRISBURG*    CLOUDY    23  20  88 CALM      30.19F
ROBINSON*      CLOUDY    17  13  86 CALM      30.20S
CARMI*         CLOUDY    21  18  88 CALM      30.18F
$$

ABBREVIATIONS USED IN REMARKS
   TC - TEMPERATURE IN CELSIUS
  WCI - WIND CHILL INDEX
   HX - HEAT INDEX
  VSB - VISIBILITY
$$




USA.gov is the U.S. government's official web portal to all federal, state and local government web resources and services.